Time,TemperatureF,DewpointF,PressureIn,WindDirection,WindDirectionDegrees,WindSpeedMPH,WindSpeedGustMPH,Humidity,HourlyPrecipIn,Conditions,Clouds,dailyrainin,SoftwareType,DateUTC
2013-09-20 00:01:00,54.1,49.1,0.00,North,357,0.0,0.0,83,0.00,,---,0.00,VWS V13.01,2013-09-20 04:01:00,
2013-09-20 00:02:00,54.1,49.1,0.00,North,357,0.0,0.0,83,0.00,,---,0.00,VWS V13.01,2013-09-20 04:02:00,
2013-09-20 00:07:00,54.0,48.9,0.00,North,357,0.0,0.0,83,0.00,,---,0.00,VWS V13.01,2013-09-20 04:07:00,
2013-09-20 00:12:00,53.8,48.8,0.00,North,357,0.0,0.0,83,0.00,,---,0.00,VWS V13.01,2013-09-20 04:12:00,
2013-09-20 00:17:00,53.8,49.1,0.00,North,357,0.0,0.0,84,0.00,,---,0.00,VWS V13.01,2013-09-20 04:17:00,
2013-09-20 00:22:00,53.6,48.9,0.00,North,357,0.0,0.0,84,0.00,,---,0.00,VWS V13.01,2013-09-20 04:22:00,
2013-09-20 00:27:00,53.6,48.9,0.00,North,357,0.0,0.0,84,0.00,,---,0.00,VWS V13.01,2013-09-20 04:27:00,
2013-09-20 00:32:00,53.6,48.9,0.00,North,357,0.0,0.0,84,0.00,,---,0.00,VWS V13.01,2013-09-20 04:32:00,
2013-09-20 00:37:00,53.6,48.9,0.00,North,357,0.0,0.0,84,0.00,,---,0.00,VWS V13.01,2013-09-20 04:37:00,
2013-09-20 00:42:00,53.2,48.5,0.00,North,357,0.0,0.0,84,0.00,,---,0.00,VWS V13.01,2013-09-20 04:42:00,
2013-09-20 00:47:00,53.1,48.4,0.00,North,357,0.0,0.0,84,0.00,,---,0.00,VWS V13.01,2013-09-20 04:47:00,
2013-09-20 00:52:00,53.1,48.4,0.00,North,357,0.0,0.0,84,0.00,,---,0.00,VWS V13.01,2013-09-20 04:52:00,
2013-09-20 00:57:00,53.1,48.7,0.00,North,357,0.0,0.0,85,0.00,,---,0.00,VWS V13.01,2013-09-20 04:57:00,
2013-09-20 01:02:00,53.1,48.7,0.00,North,357,0.0,0.0,85,0.00,,---,0.00,VWS V13.01,2013-09-20 05:02:00,
2013-09-20 01:08:00,52.9,48.5,0.00,North,357,0.0,0.0,85,0.00,,---,0.00,VWS V13.01,2013-09-20 05:08:00,
2013-09-20 01:13:00,52.9,48.5,0.00,North,357,0.0,0.0,85,0.00,,---,0.00,VWS V13.01,2013-09-20 05:13:00,
2013-09-20 01:18:00,52.9,48.5,0.00,North,357,0.0,0.0,85,0.00,,---,0.00,VWS V13.01,2013-09-20 05:18:00,
2013-09-20 01:23:00,52.7,48.3,0.00,North,357,0.0,0.0,85,0.00,,---,0.00,VWS V13.01,2013-09-20 05:23:00,
2013-09-20 01:28:00,52.5,48.2,0.00,North,357,0.0,0.0,85,0.00,,---,0.00,VWS V13.01,2013-09-20 05:28:00,
2013-09-20 01:33:00,52.7,48.3,0.00,North,357,0.0,0.0,85,0.00,,---,0.00,VWS V13.01,2013-09-20 05:33:00,
2013-09-20 01:38:00,52.7,48.6,0.00,North,357,0.0,0.0,86,0.00,,---,0.00,VWS V13.01,2013-09-20 05:38:00,
2013-09-20 01:43:00,52.7,48.6,0.00,North,357,0.0,0.0,86,0.00,,---,0.00,VWS V13.01,2013-09-20 05:43:00,
2013-09-20 01:48:00,52.5,48.5,0.00,North,357,0.0,0.0,86,0.00,,---,0.00,VWS V13.01,2013-09-20 05:48:00,
2013-09-20 01:53:00,52.5,48.5,0.00,North,357,0.0,0.0,86,0.00,,---,0.00,VWS V13.01,2013-09-20 05:53:00,
2013-09-20 01:58:00,52.3,48.3,0.00,North,357,0.0,0.0,86,0.00,,---,0.00,VWS V13.01,2013-09-20 05:58:00,
2013-09-20 02:03:00,52.3,48.3,0.00,North,357,0.0,0.0,86,0.00,,---,0.00,VWS V13.01,2013-09-20 06:03:00,
2013-09-20 02:08:00,52.3,48.3,0.00,North,357,0.0,0.0,86,0.00,,---,0.00,VWS V13.01,2013-09-20 06:08:00,
2013-09-20 02:13:00,52.2,48.1,0.00,North,357,0.0,0.0,86,0.00,,---,0.00,VWS V13.01,2013-09-20 06:13:00,
2013-09-20 02:18:00,52.2,48.1,0.00,North,357,0.0,0.0,86,0.00,,---,0.00,VWS V13.01,2013-09-20 06:18:00,
2013-09-20 02:23:00,52.0,47.9,0.00,North,357,0.0,0.0,86,0.00,,---,0.00,VWS V13.01,2013-09-20 06:23:00,
2013-09-20 02:28:00,52.0,47.9,0.00,North,357,0.0,0.0,86,0.00,,---,0.00,VWS V13.01,2013-09-20 06:28:00,
2013-09-20 02:34:00,52.0,47.9,0.00,North,357,0.0,0.0,86,0.00,,---,0.00,VWS V13.01,2013-09-20 06:34:00,
2013-09-20 02:39:00,52.0,47.9,0.00,North,357,0.0,0.0,86,0.00,,---,0.00,VWS V13.01,2013-09-20 06:39:00,
2013-09-20 02:44:00,52.0,47.9,0.00,North,357,0.0,0.0,86,0.00,,---,0.00,VWS V13.01,2013-09-20 06:44:00,
2013-09-20 02:49:00,52.2,48.4,0.00,North,357,0.0,0.0,87,0.00,,---,0.00,VWS V13.01,2013-09-20 06:49:00,
2013-09-20 02:54:00,52.2,48.4,0.00,North,357,0.0,0.0,87,0.00,,---,0.00,VWS V13.01,2013-09-20 06:54:00,
2013-09-20 02:59:00,52.2,48.4,0.00,North,357,0.0,0.0,87,0.00,,---,0.00,VWS V13.01,2013-09-20 06:59:00,
2013-09-20 03:04:00,52.3,48.9,0.00,North,357,0.0,0.0,88,0.00,,---,0.00,VWS V13.01,2013-09-20 07:04:00,
2013-09-20 03:09:00,52.5,49.1,0.00,North,357,0.0,0.0,88,0.00,,---,0.00,VWS V13.01,2013-09-20 07:09:00,
2013-09-20 03:14:00,52.5,49.4,0.00,North,357,0.0,0.0,89,0.00,,---,0.00,VWS V13.01,2013-09-20 07:14:00,
2013-09-20 03:19:00,52.5,49.4,0.00,North,357,0.0,0.0,89,0.00,,---,0.00,VWS V13.01,2013-09-20 07:19:00,
2013-09-20 03:24:00,52.7,49.8,0.00,North,357,0.0,0.0,90,0.00,,---,0.00,VWS V13.01,2013-09-20 07:24:00,
2013-09-20 03:29:00,52.9,50.0,0.00,North,357,0.0,0.0,90,0.00,,---,0.00,VWS V13.01,2013-09-20 07:29:00,
2013-09-20 03:34:00,53.1,50.5,0.00,North,357,0.0,0.0,91,0.00,,---,0.00,VWS V13.01,2013-09-20 07:34:00,
2013-09-20 03:39:00,53.2,50.7,0.00,North,357,0.0,0.0,91,0.00,,---,0.00,VWS V13.01,2013-09-20 07:39:00,
2013-09-20 03:44:00,53.2,51.0,0.00,North,357,0.0,0.0,92,0.00,,---,0.00,VWS V13.01,2013-09-20 07:44:00,
2013-09-20 03:49:00,53.2,50.7,0.00,North,357,0.0,0.0,91,0.00,,---,0.00,VWS V13.01,2013-09-20 07:49:00,
2013-09-20 03:55:00,53.2,51.0,0.00,North,357,0.0,0.0,92,0.00,,---,0.00,VWS V13.01,2013-09-20 07:55:00,
2013-09-20 04:00:00,53.2,51.0,0.00,North,357,0.0,0.0,92,0.00,,---,0.00,VWS V13.01,2013-09-20 08:00:00,
2013-09-20 04:05:00,53.1,50.8,0.00,North,357,0.0,0.0,92,0.00,,---,0.00,VWS V13.01,2013-09-20 08:05:00,
2013-09-20 04:10:00,53.1,50.8,0.00,North,357,0.0,0.0,92,0.00,,---,0.00,VWS V13.01,2013-09-20 08:10:00,
2013-09-20 04:15:00,53.1,50.8,0.00,North,357,0.0,0.0,92,0.00,,---,0.00,VWS V13.01,2013-09-20 08:15:00,
2013-09-20 04:20:00,53.1,50.8,0.00,North,357,0.0,0.0,92,0.00,,---,0.00,VWS V13.01,2013-09-20 08:20:00,
2013-09-20 04:25:00,53.2,51.3,0.00,North,357,0.0,0.0,93,0.00,,---,0.00,VWS V13.01,2013-09-20 08:25:00,
2013-09-20 04:30:00,53.1,51.1,0.00,North,357,0.0,0.0,93,0.00,,---,0.00,VWS V13.01,2013-09-20 08:30:00,
2013-09-20 04:35:00,53.2,51.3,0.00,North,357,0.0,0.0,93,0.00,,---,0.00,VWS V13.01,2013-09-20 08:35:00,
2013-09-20 04:40:00,53.2,51.3,0.00,North,357,0.0,0.0,93,0.00,,---,0.00,VWS V13.01,2013-09-20 08:40:00,
2013-09-20 04:45:00,53.2,51.6,0.00,North,357,0.0,0.0,94,0.00,,---,0.00,VWS V13.01,2013-09-20 08:45:00,
2013-09-20 04:50:00,53.2,51.3,0.00,North,357,0.0,0.0,93,0.00,,---,0.00,VWS V13.01,2013-09-20 08:50:00,
2013-09-20 04:55:00,53.1,51.1,0.00,North,357,0.0,0.0,93,0.00,,---,0.00,VWS V13.01,2013-09-20 08:55:00,
2013-09-20 05:00:00,53.1,51.4,0.00,North,357,0.0,0.0,94,0.00,,---,0.00,VWS V13.01,2013-09-20 09:00:00,
2013-09-20 05:05:00,53.1,51.4,0.00,North,357,0.0,0.0,94,0.00,,---,0.00,VWS V13.01,2013-09-20 09:05:00,
2013-09-20 05:10:00,53.2,51.6,0.00,North,357,0.0,0.0,94,0.00,,---,0.00,VWS V13.01,2013-09-20 09:10:00,
2013-09-20 05:15:00,53.2,51.6,0.00,North,357,0.0,0.0,94,0.00,,---,0.00,VWS V13.01,2013-09-20 09:15:00,
2013-09-20 05:20:00,53.2,51.8,0.00,North,357,0.0,0.0,95,0.00,,---,0.00,VWS V13.01,2013-09-20 09:20:00,
2013-09-20 05:25:00,53.2,51.8,0.00,North,357,0.0,0.0,95,0.00,,---,0.00,VWS V13.01,2013-09-20 09:25:00,
2013-09-20 05:30:00,53.1,51.7,0.00,North,357,0.0,0.0,95,0.00,,---,0.00,VWS V13.01,2013-09-20 09:30:00,
2013-09-20 05:35:00,53.1,51.7,0.00,North,357,0.0,0.0,95,0.00,,---,0.00,VWS V13.01,2013-09-20 09:35:00,
2013-09-20 05:40:00,53.1,51.7,0.00,North,357,0.0,0.0,95,0.00,,---,0.00,VWS V13.01,2013-09-20 09:40:00,
2013-09-20 05:45:00,53.1,51.7,0.00,North,357,0.0,0.0,95,0.00,,---,0.00,VWS V13.01,2013-09-20 09:45:00,
2013-09-20 05:51:00,52.9,51.5,0.00,North,357,0.0,0.0,95,0.00,,---,0.00,VWS V13.01,2013-09-20 09:51:00,
2013-09-20 05:56:00,52.9,51.5,0.00,North,357,0.0,0.0,95,0.00,,---,0.00,VWS V13.01,2013-09-20 09:56:00,
2013-09-20 06:01:00,52.9,51.5,0.00,North,357,0.0,0.0,95,0.00,,---,0.00,VWS V13.01,2013-09-20 10:01:00,
2013-09-20 06:06:00,52.9,51.5,0.00,North,357,0.0,0.0,95,0.00,,---,0.00,VWS V13.01,2013-09-20 10:06:00,
2013-09-20 06:11:00,52.7,51.3,0.00,North,357,0.0,0.0,95,0.00,,---,0.00,VWS V13.01,2013-09-20 10:11:00,
2013-09-20 06:16:00,52.7,51.3,0.00,North,357,0.0,0.0,95,0.00,,---,0.00,VWS V13.01,2013-09-20 10:16:00,
2013-09-20 06:21:00,52.5,51.1,0.00,North,357,0.0,0.0,95,0.00,,---,0.00,VWS V13.01,2013-09-20 10:21:00,
2013-09-20 06:26:00,52.3,50.7,0.00,North,357,0.0,0.0,94,0.00,,---,0.00,VWS V13.01,2013-09-20 10:26:00,
2013-09-20 06:31:00,52.2,50.5,0.00,North,357,0.0,0.0,94,0.00,,---,0.00,VWS V13.01,2013-09-20 10:31:00,
2013-09-20 06:36:00,52.0,50.3,0.00,North,357,0.0,0.0,94,0.00,,---,0.00,VWS V13.01,2013-09-20 10:36:00,
2013-09-20 06:41:00,51.6,50.0,0.00,North,357,0.0,0.0,94,0.00,,---,0.00,VWS V13.01,2013-09-20 10:41:00,
2013-09-20 06:46:00,51.6,50.0,0.00,North,357,0.0,0.0,94,0.00,,---,0.00,VWS V13.01,2013-09-20 10:46:00,
2013-09-20 06:51:00,51.6,50.0,0.00,North,357,0.0,0.0,94,0.00,,---,0.00,VWS V13.01,2013-09-20 10:51:00,
2013-09-20 06:56:00,51.6,50.0,0.00,North,357,0.0,0.0,94,0.00,,---,0.00,VWS V13.01,2013-09-20 10:56:00,
2013-09-20 07:01:00,51.6,50.0,0.00,North,357,0.0,0.0,94,0.00,,---,0.00,VWS V13.01,2013-09-20 11:01:00,
2013-09-20 07:06:00,51.6,50.0,0.00,North,357,0.0,0.0,94,0.00,,---,0.00,VWS V13.01,2013-09-20 11:06:00,
2013-09-20 07:11:00,51.6,50.0,0.00,North,357,0.0,0.0,94,0.00,,---,0.00,VWS V13.01,2013-09-20 11:11:00,
2013-09-20 07:16:00,51.6,50.2,0.00,North,357,0.0,0.0,95,0.00,,---,0.00,VWS V13.01,2013-09-20 11:16:00,
2013-09-20 07:21:00,51.8,50.1,0.00,North,357,0.0,0.0,94,0.00,,---,0.00,VWS V13.01,2013-09-20 11:21:00,
2013-09-20 07:26:00,52.0,50.6,0.00,North,357,0.0,0.0,95,0.00,,---,0.00,VWS V13.01,2013-09-20 11:26:00,
2013-09-20 07:31:00,52.0,50.3,0.00,North,357,0.0,0.0,94,0.00,,---,0.00,VWS V13.01,2013-09-20 11:31:00,
2013-09-20 07:36:00,52.2,50.5,0.00,North,357,0.0,0.0,94,0.00,,---,0.00,VWS V13.01,2013-09-20 11:36:00,
2013-09-20 07:41:00,52.7,51.3,0.00,North,357,0.0,0.0,95,0.00,,---,0.00,VWS V13.01,2013-09-20 11:41:00,
2013-09-20 07:46:00,53.2,51.8,0.00,North,357,0.0,0.0,95,0.00,,---,0.00,VWS V13.01,2013-09-20 11:46:00,
2013-09-20 07:51:00,53.8,52.4,0.00,North,357,0.0,0.0,95,0.00,,---,0.00,VWS V13.01,2013-09-20 11:51:00,
2013-09-20 07:56:00,54.3,52.9,0.00,North,357,0.0,0.0,95,0.00,,---,0.00,VWS V13.01,2013-09-20 11:56:00,
2013-09-20 08:02:00,54.9,53.5,0.00,North,357,0.0,0.0,95,0.00,,---,0.00,VWS V13.01,2013-09-20 12:02:00,
2013-09-20 08:07:00,55.8,54.3,0.00,North,357,0.0,0.0,95,0.00,,---,0.00,VWS V13.01,2013-09-20 12:07:00,
2013-09-20 08:12:00,56.5,55.1,0.00,North,357,0.0,0.0,95,0.00,,---,0.00,VWS V13.01,2013-09-20 12:12:00,
2013-09-20 08:17:00,57.4,56.2,0.00,North,357,0.0,0.0,96,0.00,,---,0.00,VWS V13.01,2013-09-20 12:17:00,
2013-09-20 08:22:00,58.3,57.2,0.00,North,357,0.0,0.0,96,0.00,,---,0.00,VWS V13.01,2013-09-20 12:22:00,
2013-09-20 08:27:00,59.0,57.9,0.00,North,357,0.0,0.0,96,0.00,,---,0.00,VWS V13.01,2013-09-20 12:27:00,
2013-09-20 08:32:00,59.7,58.6,0.00,North,357,0.0,0.0,96,0.00,,---,0.00,VWS V13.01,2013-09-20 12:32:00,
2013-09-20 08:37:00,60.4,59.3,0.00,North,357,0.0,0.0,96,0.00,,---,0.00,VWS V13.01,2013-09-20 12:37:00,
2013-09-20 08:42:00,61.3,59.9,0.00,North,357,0.0,0.0,95,0.00,,---,0.00,VWS V13.01,2013-09-20 12:42:00,
2013-09-20 08:47:00,62.1,60.9,0.00,North,357,0.0,0.0,96,0.00,,---,0.00,VWS V13.01,2013-09-20 12:47:00,
2013-09-20 08:52:00,63.0,61.8,0.00,North,357,0.0,0.0,96,0.00,,---,0.00,VWS V13.01,2013-09-20 12:52:00,
2013-09-20 08:57:00,63.9,62.7,0.00,North,357,0.0,0.0,96,0.00,,---,0.00,VWS V13.01,2013-09-20 12:57:00,
2013-09-20 09:02:00,64.9,63.8,0.00,North,357,0.0,0.0,96,0.00,,---,0.00,VWS V13.01,2013-09-20 13:02:00,
2013-09-20 09:07:00,65.7,64.2,0.00,North,357,0.0,0.0,95,0.00,,---,0.00,VWS V13.01,2013-09-20 13:07:00,
2013-09-20 09:12:00,66.0,64.2,0.00,North,357,0.0,0.0,94,0.00,,---,0.00,VWS V13.01,2013-09-20 13:12:00,
2013-09-20 09:17:00,66.7,64.3,0.00,North,357,0.0,0.0,92,0.00,,---,0.00,VWS V13.01,2013-09-20 13:17:00,
2013-09-20 09:22:00,67.1,64.4,0.00,North,357,0.0,0.0,91,0.00,,---,0.00,VWS V13.01,2013-09-20 13:22:00,
2013-09-20 09:27:00,67.6,64.9,0.00,North,357,0.0,0.0,91,0.00,,---,0.00,VWS V13.01,2013-09-20 13:27:00,
2013-09-20 09:32:00,68.2,64.8,0.00,North,357,0.0,0.0,89,0.00,,---,0.00,VWS V13.01,2013-09-20 13:32:00,
2013-09-20 09:37:00,68.7,65.0,0.00,North,357,0.0,0.0,88,0.00,,---,0.00,VWS V13.01,2013-09-20 13:37:00,
2013-09-20 09:42:00,69.1,64.4,0.00,North,357,0.0,0.0,85,0.00,,---,0.00,VWS V13.01,2013-09-20 13:42:00,
2013-09-20 09:47:00,69.6,64.2,0.00,North,357,0.0,0.0,83,0.00,,---,0.00,VWS V13.01,2013-09-20 13:47:00,
2013-09-20 09:53:00,70.0,63.9,0.00,North,357,0.0,0.0,81,0.00,,---,0.00,VWS V13.01,2013-09-20 13:53:00,
2013-09-20 09:58:00,70.3,63.5,0.00,North,357,0.0,0.0,79,0.00,,---,0.00,VWS V13.01,2013-09-20 13:58:00,
2013-09-20 10:03:00,70.7,63.1,0.00,North,357,0.0,0.0,77,0.00,,---,0.00,VWS V13.01,2013-09-20 14:03:00,
2013-09-20 10:08:00,71.1,63.1,0.00,North,357,0.0,0.0,76,0.00,,---,0.00,VWS V13.01,2013-09-20 14:08:00,
2013-09-20 10:13:00,71.4,63.1,0.00,North,357,0.0,0.0,75,0.00,,---,0.00,VWS V13.01,2013-09-20 14:13:00,
2013-09-20 10:18:00,71.8,62.3,0.00,North,357,0.0,0.0,72,0.00,,---,0.00,VWS V13.01,2013-09-20 14:18:00,
2013-09-20 10:23:00,72.1,61.8,0.00,North,357,0.0,0.0,70,0.00,,---,0.00,VWS V13.01,2013-09-20 14:23:00,
2013-09-20 10:28:00,72.5,62.2,0.00,North,357,0.0,0.0,70,0.00,,---,0.00,VWS V13.01,2013-09-20 14:28:00,
2013-09-20 10:33:00,72.9,61.7,0.00,North,357,0.0,0.0,68,0.00,,---,0.00,VWS V13.01,2013-09-20 14:33:00,
2013-09-20 10:38:00,73.0,61.5,0.00,North,357,0.0,0.0,67,0.00,,---,0.00,VWS V13.01,2013-09-20 14:38:00,
2013-09-20 10:43:00,73.2,61.2,0.00,North,357,0.0,0.0,66,0.00,,---,0.00,VWS V13.01,2013-09-20 14:43:00,
2013-09-20 10:48:00,73.6,61.5,0.00,North,357,0.0,0.0,66,0.00,,---,0.00,VWS V13.01,2013-09-20 14:48:00,
2013-09-20 10:53:00,73.8,61.3,0.00,North,357,0.0,0.0,65,0.00,,---,0.00,VWS V13.01,2013-09-20 14:53:00,
2013-09-20 10:58:00,74.1,61.6,0.00,North,357,0.0,0.0,65,0.00,,---,0.00,VWS V13.01,2013-09-20 14:58:00,
2013-09-20 11:03:00,74.3,61.3,0.00,North,357,0.0,0.0,64,0.00,,---,0.00,VWS V13.01,2013-09-20 15:03:00,
2013-09-20 11:08:00,74.5,61.1,0.00,North,357,0.0,0.0,63,0.00,,---,0.00,VWS V13.01,2013-09-20 15:08:00,
2013-09-20 11:13:00,74.8,61.4,0.00,North,357,0.0,0.0,63,0.00,,---,0.00,VWS V13.01,2013-09-20 15:13:00,
2013-09-20 11:18:00,75.0,61.1,0.00,North,357,0.0,0.0,62,0.00,,---,0.00,VWS V13.01,2013-09-20 15:18:00,
2013-09-20 11:23:00,75.2,61.3,0.00,North,357,0.0,0.0,62,0.00,,---,0.00,VWS V13.01,2013-09-20 15:23:00,
2013-09-20 11:28:00,75.4,61.5,0.00,North,357,0.0,0.0,62,0.00,,---,0.00,VWS V13.01,2013-09-20 15:28:00,
2013-09-20 11:33:00,75.6,61.2,0.00,North,357,0.0,0.0,61,0.00,,---,0.00,VWS V13.01,2013-09-20 15:33:00,
2013-09-20 11:38:00,75.4,59.6,0.00,North,357,0.0,0.0,58,0.00,,---,0.00,VWS V13.01,2013-09-20 15:38:00,
2013-09-20 11:44:00,75.7,60.9,0.00,North,357,0.0,0.0,60,0.00,,---,0.00,VWS V13.01,2013-09-20 15:44:00,
2013-09-20 11:49:00,75.7,60.4,0.00,North,357,0.0,0.0,59,0.00,,---,0.00,VWS V13.01,2013-09-20 15:49:00,
2013-09-20 11:54:00,75.9,60.1,0.00,North,357,0.0,0.0,58,0.00,,---,0.00,VWS V13.01,2013-09-20 15:54:00,
2013-09-20 11:59:00,75.9,59.6,0.00,North,357,0.0,0.0,57,0.00,,---,0.00,VWS V13.01,2013-09-20 15:59:00,
2013-09-20 12:04:00,76.1,59.8,0.00,North,357,0.0,0.0,57,0.00,,---,0.00,VWS V13.01,2013-09-20 16:04:00,
2013-09-20 12:09:00,76.3,60.4,0.00,North,357,0.0,0.0,58,0.00,,---,0.00,VWS V13.01,2013-09-20 16:09:00,
2013-09-20 12:14:00,76.5,60.1,0.00,North,357,0.0,0.0,57,0.00,,---,0.00,VWS V13.01,2013-09-20 16:14:00,
2013-09-20 12:19:00,76.6,60.3,0.00,North,357,0.0,0.0,57,0.00,,---,0.00,VWS V13.01,2013-09-20 16:19:00,
2013-09-20 12:24:00,76.6,59.8,0.00,North,357,0.0,0.0,56,0.00,,---,0.00,VWS V13.01,2013-09-20 16:24:00,
2013-09-20 12:29:00,76.8,59.5,0.00,North,357,0.0,0.0,55,0.00,,---,0.00,VWS V13.01,2013-09-20 16:29:00,
2013-09-20 12:34:00,76.8,58.9,0.00,North,357,0.0,0.0,54,0.00,,---,0.00,VWS V13.01,2013-09-20 16:34:00,
2013-09-20 12:39:00,77.0,59.6,0.00,North,357,0.0,0.0,55,0.00,,---,0.00,VWS V13.01,2013-09-20 16:39:00,
2013-09-20 12:44:00,77.2,59.3,0.00,North,357,0.0,0.0,54,0.00,,---,0.00,VWS V13.01,2013-09-20 16:44:00,
2013-09-20 12:49:00,77.4,59.4,0.00,North,357,0.0,0.0,54,0.00,,---,0.00,VWS V13.01,2013-09-20 16:49:00,
2013-09-20 12:54:00,77.7,60.3,0.00,North,357,0.0,0.0,55,0.00,,---,0.00,VWS V13.01,2013-09-20 16:54:00,
2013-09-20 12:59:00,77.9,59.9,0.00,North,357,0.0,0.0,54,0.00,,---,0.00,VWS V13.01,2013-09-20 16:59:00,
2013-09-20 13:04:00,77.9,59.9,0.00,North,357,0.0,0.0,54,0.00,,---,0.00,VWS V13.01,2013-09-20 17:04:00,
2013-09-20 13:09:00,77.9,58.9,0.00,North,357,0.0,0.0,52,0.00,,---,0.00,VWS V13.01,2013-09-20 17:09:00,
2013-09-20 13:14:00,78.1,59.0,0.00,North,357,0.0,0.0,52,0.00,,---,0.00,VWS V13.01,2013-09-20 17:14:00,
2013-09-20 13:19:00,77.9,58.3,0.00,North,357,0.0,0.0,51,0.00,,---,0.00,VWS V13.01,2013-09-20 17:19:00,
2013-09-20 13:24:00,78.1,58.5,0.00,North,357,0.0,0.0,51,0.00,,---,0.00,VWS V13.01,2013-09-20 17:24:00,
2013-09-20 13:29:00,78.1,58.5,0.00,North,357,0.0,0.0,51,0.00,,---,0.00,VWS V13.01,2013-09-20 17:29:00,
2013-09-20 13:34:00,78.1,58.5,0.00,North,357,0.0,0.0,51,0.00,,---,0.00,VWS V13.01,2013-09-20 17:34:00,
2013-09-20 13:39:00,78.3,58.7,0.00,North,357,0.0,0.0,51,0.00,,---,0.00,VWS V13.01,2013-09-20 17:39:00,
2013-09-20 13:46:00,78.4,58.8,0.00,North,357,0.0,0.0,51,0.00,,---,0.00,VWS V13.01,2013-09-20 17:46:00,
2013-09-20 13:51:00,78.4,58.8,0.00,North,357,0.0,0.0,51,0.00,,---,0.00,VWS V13.01,2013-09-20 17:51:00,
2013-09-20 13:56:00,78.4,58.3,0.00,North,357,0.0,0.0,50,0.00,,---,0.00,VWS V13.01,2013-09-20 17:56:00,
2013-09-20 14:01:00,78.6,59.0,0.00,North,357,0.0,0.0,51,0.00,,---,0.00,VWS V13.01,2013-09-20 18:01:00,
2013-09-20 14:06:00,78.6,57.9,0.00,North,357,0.0,0.0,49,0.00,,---,0.00,VWS V13.01,2013-09-20 18:06:00,
2013-09-20 14:11:00,78.8,58.0,0.00,North,357,0.0,0.0,49,0.00,,---,0.00,VWS V13.01,2013-09-20 18:11:00,
2013-09-20 14:16:00,78.8,58.0,0.00,North,357,0.0,0.0,49,0.00,,---,0.00,VWS V13.01,2013-09-20 18:16:00,
2013-09-20 14:21:00,79.0,58.2,0.00,North,357,0.0,0.0,49,0.00,,---,0.00,VWS V13.01,2013-09-20 18:21:00,
2013-09-20 14:26:00,79.2,58.4,0.00,North,357,0.0,0.0,49,0.00,,---,0.00,VWS V13.01,2013-09-20 18:26:00,
2013-09-20 14:31:00,79.2,58.4,0.00,North,357,0.0,0.0,49,0.00,,---,0.00,VWS V13.01,2013-09-20 18:31:00,
2013-09-20 14:36:00,79.3,58.5,0.00,North,357,0.0,0.0,49,0.00,,---,0.00,VWS V13.01,2013-09-20 18:36:00,
2013-09-20 14:41:00,79.5,58.7,0.00,North,357,0.0,0.0,49,0.00,,---,0.00,VWS V13.01,2013-09-20 18:41:00,
2013-09-20 14:46:00,79.7,58.3,0.00,North,357,0.0,0.0,48,0.00,,---,0.00,VWS V13.01,2013-09-20 18:46:00,
2013-09-20 14:51:00,79.7,58.3,0.00,North,357,0.0,0.0,48,0.00,,---,0.00,VWS V13.01,2013-09-20 18:51:00,
2013-09-20 14:56:00,79.7,57.1,0.00,North,357,0.0,0.0,46,0.00,,---,0.00,VWS V13.01,2013-09-20 18:56:00,
2013-09-20 15:01:00,79.2,57.2,0.00,North,357,0.0,0.0,47,0.00,,---,0.00,VWS V13.01,2013-09-20 19:01:00,
2013-09-20 15:06:00,79.0,57.0,0.00,North,357,0.0,0.0,47,0.00,,---,0.00,VWS V13.01,2013-09-20 19:06:00,
2013-09-20 15:11:00,78.8,58.6,0.00,North,357,0.0,0.0,50,0.00,,---,0.00,VWS V13.01,2013-09-20 19:11:00,
2013-09-20 15:16:00,78.8,58.6,0.00,North,357,0.0,0.0,50,0.00,,---,0.00,VWS V13.01,2013-09-20 19:16:00,
2013-09-20 15:21:00,78.8,58.6,0.00,North,357,0.0,0.0,50,0.00,,---,0.00,VWS V13.01,2013-09-20 19:21:00,
2013-09-20 15:27:00,79.0,59.3,0.00,North,357,0.0,0.0,51,0.00,,---,0.00,VWS V13.01,2013-09-20 19:27:00,
2013-09-20 15:32:00,79.0,59.3,0.00,North,357,0.0,0.0,51,0.00,,---,0.00,VWS V13.01,2013-09-20 19:32:00,
2013-09-20 15:37:00,79.3,59.7,0.00,North,357,0.0,0.0,51,0.00,,---,0.00,VWS V13.01,2013-09-20 19:37:00,
2013-09-20 15:42:00,79.7,59.4,0.00,North,357,0.0,0.0,50,0.00,,---,0.00,VWS V13.01,2013-09-20 19:42:00,
2013-09-20 15:47:00,79.7,58.9,0.00,North,357,0.0,0.0,49,0.00,,---,0.00,VWS V13.01,2013-09-20 19:47:00,
2013-09-20 15:52:00,79.3,58.0,0.00,North,357,0.0,0.0,48,0.00,,---,0.00,VWS V13.01,2013-09-20 19:52:00,
2013-09-20 15:57:00,79.3,58.0,0.00,North,357,0.0,0.0,48,0.00,,---,0.00,VWS V13.01,2013-09-20 19:57:00,
2013-09-20 16:02:00,79.3,58.0,0.00,North,357,0.0,0.0,48,0.00,,---,0.00,VWS V13.01,2013-09-20 20:02:00,
2013-09-20 16:07:00,79.3,58.0,0.00,North,357,0.0,0.0,48,0.00,,---,0.00,VWS V13.01,2013-09-20 20:07:00,
2013-09-20 16:12:00,79.3,58.5,0.00,North,357,0.0,0.0,49,0.00,,---,0.00,VWS V13.01,2013-09-20 20:12:00,
2013-09-20 16:17:00,79.2,58.4,0.00,North,357,0.0,0.0,49,0.00,,---,0.00,VWS V13.01,2013-09-20 20:17:00,
2013-09-20 16:22:00,79.0,58.2,0.00,North,357,0.0,0.0,49,0.00,,---,0.00,VWS V13.01,2013-09-20 20:22:00,
2013-09-20 16:27:00,79.0,58.2,0.00,North,357,0.0,0.0,49,0.00,,---,0.00,VWS V13.01,2013-09-20 20:27:00,
2013-09-20 16:32:00,78.8,58.0,0.00,North,357,0.0,0.0,49,0.00,,---,0.00,VWS V13.01,2013-09-20 20:32:00,
2013-09-20 16:37:00,79.0,58.2,0.00,North,357,0.0,0.0,49,0.00,,---,0.00,VWS V13.01,2013-09-20 20:37:00,
2013-09-20 16:42:00,79.0,58.8,0.00,North,357,0.0,0.0,50,0.00,,---,0.00,VWS V13.01,2013-09-20 20:42:00,
2013-09-20 16:47:00,78.8,58.6,0.00,North,357,0.0,0.0,50,0.00,,---,0.00,VWS V13.01,2013-09-20 20:47:00,
2013-09-20 16:52:00,78.6,58.4,0.00,North,357,0.0,0.0,50,0.00,,---,0.00,VWS V13.01,2013-09-20 20:52:00,
2013-09-20 16:57:00,78.4,58.8,0.00,North,357,0.0,0.0,51,0.00,,---,0.00,VWS V13.01,2013-09-20 20:57:00,
2013-09-20 17:02:00,78.3,58.7,0.00,North,357,0.0,0.0,51,0.00,,---,0.00,VWS V13.01,2013-09-20 21:02:00,
2013-09-20 17:07:00,78.1,58.5,0.00,North,357,0.0,0.0,51,0.00,,---,0.00,VWS V13.01,2013-09-20 21:07:00,
2013-09-20 17:13:00,77.9,58.9,0.00,North,357,0.0,0.0,52,0.00,,---,0.00,VWS V13.01,2013-09-20 21:13:00,
2013-09-20 17:18:00,77.7,58.7,0.00,North,357,0.0,0.0,52,0.00,,---,0.00,VWS V13.01,2013-09-20 21:18:00,
2013-09-20 17:23:00,77.5,59.1,0.00,North,357,0.0,0.0,53,0.00,,---,0.00,VWS V13.01,2013-09-20 21:23:00,
2013-09-20 17:28:00,77.5,59.1,0.00,North,357,0.0,0.0,53,0.00,,---,0.00,VWS V13.01,2013-09-20 21:28:00,
2013-09-20 17:33:00,77.5,59.1,0.00,North,357,0.0,0.0,53,0.00,,---,0.00,VWS V13.01,2013-09-20 21:33:00,
2013-09-20 17:38:00,77.4,58.9,0.00,North,357,0.0,0.0,53,0.00,,---,0.00,VWS V13.01,2013-09-20 21:38:00,
2013-09-20 17:43:00,77.4,58.9,0.00,North,357,0.0,0.0,53,0.00,,---,0.00,VWS V13.01,2013-09-20 21:43:00,
2013-09-20 17:48:00,77.2,58.7,0.00,North,357,0.0,0.0,53,0.00,,---,0.00,VWS V13.01,2013-09-20 21:48:00,
2013-09-20 17:53:00,77.0,58.6,0.00,North,357,0.0,0.0,53,0.00,,---,0.00,VWS V13.01,2013-09-20 21:53:00,
2013-09-20 17:58:00,76.8,58.9,0.00,North,357,0.0,0.0,54,0.00,,---,0.00,VWS V13.01,2013-09-20 21:58:00,
2013-09-20 18:03:00,76.8,58.9,0.00,North,357,0.0,0.0,54,0.00,,---,0.00,VWS V13.01,2013-09-20 22:03:00,
2013-09-20 18:08:00,76.6,59.3,0.00,North,357,0.0,0.0,55,0.00,,---,0.00,VWS V13.01,2013-09-20 22:08:00,
2013-09-20 18:13:00,76.6,59.3,0.00,North,357,0.0,0.0,55,0.00,,---,0.00,VWS V13.01,2013-09-20 22:13:00,
2013-09-20 18:18:00,76.5,59.6,0.00,North,357,0.0,0.0,56,0.00,,---,0.00,VWS V13.01,2013-09-20 22:18:00,
2013-09-20 18:23:00,76.3,59.5,0.00,North,357,0.0,0.0,56,0.00,,---,0.00,VWS V13.01,2013-09-20 22:23:00,
2013-09-20 18:28:00,75.9,59.1,0.00,North,357,0.0,0.0,56,0.00,,---,0.00,VWS V13.01,2013-09-20 22:28:00,
2013-09-20 18:33:00,75.7,59.0,0.00,North,357,0.0,0.0,56,0.00,,---,0.00,VWS V13.01,2013-09-20 22:33:00,
2013-09-20 18:38:00,75.4,58.6,0.00,North,357,0.0,0.0,56,0.00,,---,0.00,VWS V13.01,2013-09-20 22:38:00,
2013-09-20 18:43:00,75.2,58.4,0.00,North,357,0.0,0.0,56,0.00,,---,0.00,VWS V13.01,2013-09-20 22:43:00,
2013-09-20 18:48:00,74.8,58.6,0.00,North,357,0.0,0.0,57,0.00,,---,0.00,VWS V13.01,2013-09-20 22:48:00,
2013-09-20 18:53:00,74.7,58.4,0.00,North,357,0.0,0.0,57,0.00,,---,0.00,VWS V13.01,2013-09-20 22:53:00,
2013-09-20 18:58:00,74.3,58.1,0.00,North,357,0.0,0.0,57,0.00,,---,0.00,VWS V13.01,2013-09-20 22:58:00,
2013-09-20 19:04:00,74.1,58.4,0.00,North,357,0.0,0.0,58,0.00,,---,0.00,VWS V13.01,2013-09-20 23:04:00,
2013-09-20 19:09:00,73.8,58.5,0.00,North,357,0.0,0.0,59,0.00,,---,0.00,VWS V13.01,2013-09-20 23:09:00,
2013-09-20 19:14:00,73.4,58.7,0.00,North,357,0.0,0.0,60,0.00,,---,0.00,VWS V13.01,2013-09-20 23:14:00,
2013-09-20 19:19:00,73.0,58.8,0.00,North,357,0.0,0.0,61,0.00,,---,0.00,VWS V13.01,2013-09-20 23:19:00,
2013-09-20 19:24:00,72.7,58.5,0.00,North,357,0.0,0.0,61,0.00,,---,0.00,VWS V13.01,2013-09-20 23:24:00,
2013-09-20 19:29:00,72.3,58.6,0.00,North,357,0.0,0.0,62,0.00,,---,0.00,VWS V13.01,2013-09-20 23:29:00,
2013-09-20 19:34:00,72.0,58.7,0.00,North,357,0.0,0.0,63,0.00,,---,0.00,VWS V13.01,2013-09-20 23:34:00,
2013-09-20 19:39:00,71.4,59.0,0.00,North,357,0.0,0.0,65,0.00,,---,0.00,VWS V13.01,2013-09-20 23:39:00,
2013-09-20 19:44:00,71.2,58.9,0.00,North,357,0.0,0.0,65,0.00,,---,0.00,VWS V13.01,2013-09-20 23:44:00,
2013-09-20 19:49:00,71.1,59.1,0.00,North,357,0.0,0.0,66,0.00,,---,0.00,VWS V13.01,2013-09-20 23:49:00,
2013-09-20 19:54:00,70.9,59.0,0.00,North,357,0.0,0.0,66,0.00,,---,0.00,VWS V13.01,2013-09-20 23:54:00,
2013-09-20 19:59:00,70.9,59.0,0.00,North,357,0.0,0.0,66,0.00,,---,0.00,VWS V13.01,2013-09-20 23:59:00,
2013-09-20 20:04:00,70.5,59.0,0.00,North,357,0.0,0.0,67,0.00,,---,0.00,VWS V13.01,2013-09-21 00:04:00,
2013-09-20 20:09:00,70.5,59.0,0.00,North,357,0.0,0.0,67,0.00,,---,0.00,VWS V13.01,2013-09-21 00:09:00,
2013-09-20 20:14:00,70.3,58.9,0.00,North,357,0.0,0.0,67,0.00,,---,0.00,VWS V13.01,2013-09-21 00:14:00,
2013-09-20 20:19:00,70.3,58.9,0.00,North,357,0.0,0.0,67,0.00,,---,0.00,VWS V13.01,2013-09-21 00:19:00,
2013-09-20 20:24:00,70.2,59.1,0.00,North,357,0.0,0.0,68,0.00,,---,0.00,VWS V13.01,2013-09-21 00:24:00,
2013-09-20 20:29:00,70.0,59.0,0.00,North,357,0.0,0.0,68,0.00,,---,0.00,VWS V13.01,2013-09-21 00:29:00,
2013-09-20 20:34:00,69.8,58.8,0.00,North,357,0.0,0.0,68,0.00,,---,0.00,VWS V13.01,2013-09-21 00:34:00,
2013-09-20 20:39:00,69.8,59.2,0.00,North,357,0.0,0.0,69,0.00,,---,0.00,VWS V13.01,2013-09-21 00:39:00,
2013-09-20 20:45:00,69.8,59.2,0.00,North,357,0.0,0.0,69,0.00,,---,0.00,VWS V13.01,2013-09-21 00:45:00,
2013-09-20 20:50:00,69.8,59.2,0.00,North,357,0.0,0.0,69,0.00,,---,0.00,VWS V13.01,2013-09-21 00:50:00,
2013-09-20 20:55:00,69.8,59.2,0.00,North,357,0.0,0.0,69,0.00,,---,0.00,VWS V13.01,2013-09-21 00:55:00,
2013-09-20 21:00:00,69.8,59.2,0.00,North,357,0.0,0.0,69,0.00,,---,0.00,VWS V13.01,2013-09-21 01:00:00,
2013-09-20 21:05:00,69.8,59.2,0.00,North,357,0.0,0.0,69,0.00,,---,0.00,VWS V13.01,2013-09-21 01:05:00,
2013-09-20 21:10:00,70.0,59.3,0.00,North,357,0.0,0.0,69,0.00,,---,0.00,VWS V13.01,2013-09-21 01:10:00,
2013-09-20 21:15:00,70.0,59.3,0.00,North,357,0.0,0.0,69,0.00,,---,0.00,VWS V13.01,2013-09-21 01:15:00,
2013-09-20 21:20:00,70.0,59.3,0.00,North,357,0.0,0.0,69,0.00,,---,0.00,VWS V13.01,2013-09-21 01:20:00,
2013-09-20 21:25:00,70.0,59.0,0.00,North,357,0.0,0.0,68,0.00,,---,0.00,VWS V13.01,2013-09-21 01:25:00,
2013-09-20 21:30:00,70.0,59.0,0.00,North,357,0.0,0.0,68,0.00,,---,0.00,VWS V13.01,2013-09-21 01:30:00,
2013-09-20 21:35:00,70.0,59.0,0.00,North,357,0.0,0.0,68,0.00,,---,0.00,VWS V13.01,2013-09-21 01:35:00,
2013-09-20 21:40:00,70.2,58.7,0.00,North,357,0.0,0.0,67,0.00,,---,0.00,VWS V13.01,2013-09-21 01:40:00,
2013-09-20 21:45:00,70.2,58.7,0.00,North,357,0.0,0.0,67,0.00,,---,0.00,VWS V13.01,2013-09-21 01:45:00,
2013-09-20 21:50:00,70.2,58.7,0.00,North,357,0.0,0.0,67,0.00,,---,0.00,VWS V13.01,2013-09-21 01:50:00,
2013-09-20 21:55:00,70.2,58.3,0.00,North,357,0.0,0.0,66,0.00,,---,0.00,VWS V13.01,2013-09-21 01:55:00,
2013-09-20 22:00:00,70.2,58.3,0.00,North,357,0.0,0.0,66,0.00,,---,0.00,VWS V13.01,2013-09-21 02:00:00,
2013-09-20 22:05:00,70.2,58.3,0.00,North,357,0.0,0.0,66,0.00,,---,0.00,VWS V13.01,2013-09-21 02:05:00,
2013-09-20 22:10:00,70.2,58.3,0.00,North,357,0.0,0.0,66,0.00,,---,0.00,VWS V13.01,2013-09-21 02:10:00,
2013-09-20 22:16:00,70.0,58.1,0.00,North,357,0.0,0.0,66,0.00,,---,0.00,VWS V13.01,2013-09-21 02:16:00,
2013-09-20 22:21:00,70.0,58.1,0.00,North,357,0.0,0.0,66,0.00,,---,0.00,VWS V13.01,2013-09-21 02:21:00,
2013-09-20 22:26:00,70.0,58.1,0.00,North,357,0.0,0.0,66,0.00,,---,0.00,VWS V13.01,2013-09-21 02:26:00,
2013-09-20 22:31:00,69.8,57.9,0.00,North,357,0.0,0.0,66,0.00,,---,0.00,VWS V13.01,2013-09-21 02:31:00,
2013-09-20 22:36:00,69.8,57.9,0.00,North,357,0.0,0.0,66,0.00,,---,0.00,VWS V13.01,2013-09-21 02:36:00,
2013-09-20 22:41:00,69.8,57.5,0.00,North,357,0.0,0.0,65,0.00,,---,0.00,VWS V13.01,2013-09-21 02:41:00,
2013-09-20 22:46:00,69.8,57.5,0.00,North,357,0.0,0.0,65,0.00,,---,0.00,VWS V13.01,2013-09-21 02:46:00,
2013-09-20 22:51:00,69.6,57.8,0.00,North,357,0.0,0.0,66,0.00,,---,0.00,VWS V13.01,2013-09-21 02:51:00,
2013-09-20 22:56:00,69.6,57.8,0.00,North,357,0.0,0.0,66,0.00,,---,0.00,VWS V13.01,2013-09-21 02:56:00,
2013-09-20 23:01:00,69.6,57.3,0.00,North,357,0.0,0.0,65,0.00,,---,0.00,VWS V13.01,2013-09-21 03:01:00,
2013-09-20 23:06:00,69.6,57.3,0.00,North,357,0.0,0.0,65,0.00,,---,0.00,VWS V13.01,2013-09-21 03:06:00,
2013-09-20 23:11:00,69.4,57.2,0.00,North,357,0.0,0.0,65,0.00,,---,0.00,VWS V13.01,2013-09-21 03:11:00,
2013-09-20 23:16:00,69.4,57.2,0.00,North,357,0.0,0.0,65,0.00,,---,0.00,VWS V13.01,2013-09-21 03:16:00,
2013-09-20 23:21:00,69.4,57.2,0.00,North,357,0.0,0.0,65,0.00,,---,0.00,VWS V13.01,2013-09-21 03:21:00,
2013-09-20 23:26:00,69.4,57.2,0.00,North,357,0.0,0.0,65,0.00,,---,0.00,VWS V13.01,2013-09-21 03:26:00,
2013-09-20 23:32:00,69.3,57.0,0.00,North,357,0.0,0.0,65,0.00,,---,0.00,VWS V13.01,2013-09-21 03:32:00,
2013-09-20 23:37:00,69.3,57.0,0.00,North,357,0.0,0.0,65,0.00,,---,0.00,VWS V13.01,2013-09-21 03:37:00,
2013-09-20 23:42:00,69.3,57.0,0.00,North,357,0.0,0.0,65,0.00,,---,0.00,VWS V13.01,2013-09-21 03:42:00,
2013-09-20 23:47:00,69.1,56.8,0.00,North,357,0.0,0.0,65,0.00,,---,0.00,VWS V13.01,2013-09-21 03:47:00,
2013-09-20 23:52:00,69.1,56.8,0.00,North,357,0.0,0.0,65,0.00,,---,0.00,VWS V13.01,2013-09-21 03:52:00,
2013-09-20 23:57:00,69.1,56.8,0.00,North,357,0.0,0.0,65,0.00,,---,0.00,VWS V13.01,2013-09-21 03:57:00,